Погода в Лебедином

Россия / Республика Саха (Якутия)     58°29′29″N   125°29′59″E
темп.,
°C
ветер,
м/с
пор.,
м/с
влажн.,
%
обл.,
%
осадки,
мм/ч
давл.,
гПа
погр.,
м
27 февраля, сб
сб2700:00−23ююв4589100 0.0 102880
03:00−24ююв448880 0.0 102551
06:00−23ююв338795 0.0 102339
09:00−19ююв249497 0.2 1021255
12:00−17ю3579100 0.3 1019674
15:00−17сз2293100 0.6 1016326
18:00−20ссз36100100 0.9 1017286
21:00−23зсз5999100 1.8 1019558
28 февраля, вс
вс2800:00−25зсз71199100 0.5 1021612
03:00−27зсз71399100 0.8 1023770
06:00−27зсз71299100 0.4 1027852
09:00−28зсз81297100 0.8 1028859
12:00−27зсз81194100 0.3 10301094
15:00−27зсз81192100 0.5 10301228
18:00−28зсз51098100 0.1 1033397
21:00−30зсз47100100 0.2 1034133
1 марта, пн
пн100:00−31з34100100 0.1 103554
03:00−32зюз3398100 0.1 103562
06:00−32юз3398100 0.1 103645
09:00−31зюз3796100 0.1 1035335
12:00−28з4686100 0.1 1034853
15:00−27зсз5785100 0.1 10321059
18:00−30з23100100 0.1 103220
21:00−32ююз2299100 0.1 103219
2 марта, вт
вт200:00−32ююз339499 0.0 103225
03:00−33ю4491100 0.1 103131
06:00−34ю459258 0.0 103127
09:00−31ю448865 0.0 103075
12:00−26ююз347654 0.0 1026488
15:00−24ююз456764 0.0 10231207
18:00−29ю447894 0.0 102330
21:00−32ююв448050 0.0 102526
3 марта, ср
ср300:00−32ююв448154 0.0 102425
03:00−32ююв338141 0.0 102321
06:00−33ююв228629 0.0 102319
09:00−30ю118645 0.0 102219
12:00−27с329265 0.0 1019306
15:00−27с339583 0.0 1018393
18:00−31с23100100 0.0 101920
21:00−33зсз11100100 0.1 102119